sat.trackr.live / text

‹ back to catalog

STARLINK-30911

NORAD 58374 · 2023-178A

PAYLOAD ACTIVE UNKNOWN

§ Identity

Operator
Country
US
Launch date
2023-11-20
Launch site
AFWTR
Launch vehicle
Mass (kg)
RCS (m²)

Purposes: comms

External: N2YO · Heavens-Above · Gunter

§ Orbital elements

Epoch: 2026-05-25T00:38:58.792704Z

Period
93.85 min
Inclination
53.1607°
Eccentricity
0.0001079
Mean motion
15.34393368 rev/d
Perigee alt
462.0 km
Apogee alt
463.5 km
Semi-major
6,840.9 km
B*
3.2380e-5
RAAN
5.4556°
Arg perigee
78.7307°
Mean anomaly
281.3816°
Rev number
14,158

§ Raw data

STARLINK-309111 58374U 23178A   26145.02706936  .00000718  00000+0  32380-4 0  99942 58374  53.1607   5.4556 0001079  78.7307 281.3816 15.34393368141588

JSON: /api/v1/satellites/58374 · /tle

For live sub-satellite position, see the globe view (requires WebGL).

§ Visibility from observer

Set your observer location to see the next 7 days of passes ≥ 10°. The values pass through the URL so the page stays shareable.

No JS? Fill the form by hand. The geolocation button needs JavaScript.